• In Russia
  • List of Countries
  • For 7 days
  • Water Temperature
  • Satellite Maps
  • Weather Map
  • Weather Widgets
  • user-avatar
    Login

    Hourly Weather Tirana

    Today, 18 July, Wednesday

    Time Temperature Precipitation Wind Pressure Humidity
    00:00 +21°C° 0.3 mm 3 mps 750 mmHg 90%
    01:00 +21°C° 0 mm 3 mps 750 mmHg 89%
    02:00 +20°C° 0.2 mm 3 mps 750 mmHg 89%
    03:00 +20°C° 0.2 mm 3 mps 750 mmHg 89%
    04:00 +20°C° 0.2 mm 3 mps 750 mmHg 88%
    05:00 +21°C° 0 mm 2 mps 750 mmHg 82%
    06:00 +24°C° 0 mm 2 mps 750 mmHg 76%
    07:00 +26°C° 0 mm 2 mps 750 mmHg 67%
    08:00 +27°C° 0 mm 2 mps 750 mmHg 61%
    09:00 +29°C° 0 mm 2 mps 750 mmHg 55%
    10:00 +30°C° 0 mm 3 mps 750 mmHg 48%
    11:00 +32°C° 0 mm 4 mps 750 mmHg 47%
    12:00 +32°C° 0 mm 5 mps 750 mmHg 45%
    13:00 +33°C° 0 mm 6 mps 750 mmHg 43%
    14:00 +32°C° 0 mm 6 mps 750 mmHg 45%
    15:00 +32°C° 0 mm 6 mps 750 mmHg 48%
    16:00 +30°C° 0 mm 6 mps 750 mmHg 50%
    17:00 +28°C° 0 mm 6 mps 750 mmHg 58%
    18:00 +27°C° 0 mm 5 mps 750 mmHg 66%
    19:00 +25°C° 0 mm 4 mps 750 mmHg 73%
    20:00 +23°C° 0.1 mm 4 mps 751 mmHg 75%
    21:00 +22°C° 0.1 mm 4 mps 751 mmHg 77%
    22:00 +22°C° 0.1 mm 4 mps 751 mmHg 78%
    23:00 +21°C° 0 mm 3 mps 751 mmHg 78%

    Tomorrow, 19 July, Thursday

    Time Temperature Precipitation Wind Pressure Humidity
    00:00 +21°C° 0 mm 3 mps 751 mmHg 77%
    01:00 +21°C° 0 mm 3 mps 751 mmHg 77%
    02:00 +21°C° 0 mm 2 mps 751 mmHg 76%
    03:00 +20°C° 0 mm 2 mps 751 mmHg 75%
    04:00 +20°C° 0 mm 2 mps 751 mmHg 74%
    05:00 +23°C° 0 mm 2 mps 751 mmHg 68%
    06:00 +25°C° 0 mm 1 mps 751 mmHg 63%
    07:00 +26°C° 0 mm 1 mps 751 mmHg 57%
    08:00 +28°C° 0 mm 2 mps 751 mmHg 53%
    09:00 +29°C° 0 mm 2 mps 751 mmHg 49%
    10:00 +30°C° 0 mm 3 mps 751 mmHg 45%
    11:00 +31°C° 0 mm 3 mps 751 mmHg 44%
    12:00 +32°C° 0 mm 4 mps 751 mmHg 43%
    13:00 +33°C° 0 mm 5 mps 751 mmHg 42%
    14:00 +33°C° 0 mm 5 mps 751 mmHg 44%
    15:00 +32°C° 0 mm 5 mps 751 mmHg 46%
    16:00 +32°C° 0 mm 5 mps 751 mmHg 48%
    17:00 +29°C° 0 mm 5 mps 751 mmHg 55%
    18:00 +27°C° 0 mm 4 mps 751 mmHg 62%
    19:00 +25°C° 0 mm 3 mps 751 mmHg 69%
    20:00 +25°C° 0 mm 3 mps 751 mmHg 70%
    21:00 +24°C° 0 mm 3 mps 751 mmHg 71%
    22:00 +22°C° 0 mm 3 mps 752 mmHg 72%
    23:00 +22°C° 0 mm 3 mps 752 mmHg 71%

    Day after tomorrow, 20 July, Friday

    Time Temperature Precipitation Wind Pressure Humidity
    00:00 +22°C° 0 mm 3 mps 752 mmHg 71%
    01:00 +21°C° 0 mm 2 mps 751 mmHg 70%
    02:00 +21°C° 0 mm 2 mps 751 mmHg 71%
    03:00 +21°C° 0 mm 2 mps 751 mmHg 71%
    04:00 +21°C° 0 mm 2 mps 751 mmHg 71%
    05:00 +24°C° 0 mm 2 mps 751 mmHg 67%
    06:00 +25°C° 0 mm 2 mps 751 mmHg 63%
    07:00 +27°C° 0 mm 1 mps 751 mmHg 59%
    08:00 +28°C° 0 mm 2 mps 751 mmHg 55%
    09:00 +30°C° 0 mm 2 mps 751 mmHg 50%
    10:00 +33°C° 0 mm 3 mps 752 mmHg 45%
    11:00 +33°C° 0 mm 3 mps 751 mmHg 44%
    12:00 +34°C° 0 mm 4 mps 751 mmHg 44%
    13:00 +34°C° 0 mm 5 mps 751 mmHg 43%
    14:00 +34°C° 0 mm 5 mps 751 mmHg 44%
    15:00 +34°C° 0 mm 5 mps 751 mmHg 46%
    16:00 +33°C° 0 mm 5 mps 751 mmHg 47%
    17:00 +30°C° 0 mm 4 mps 751 mmHg 54%
    18:00 +28°C° 0 mm 4 mps 751 mmHg 61%
    19:00 +26°C° 0 mm 3 mps 751 mmHg 68%
    20:00 +25°C° 0 mm 3 mps 752 mmHg 68%
    21:00 +25°C° 0 mm 2 mps 752 mmHg 69%
    22:00 +24°C° 0 mm 2 mps 752 mmHg 69%
    23:00 +24°C° 0 mm 2 mps 752 mmHg 69%

    21 July, Saturday

    Time Temperature Precipitation Wind Pressure Humidity
    00:00 +24°C° 0 mm 2 mps 752 mmHg 69%
    01:00 +23°C° 0 mm 1 mps 752 mmHg 68%
    02:00 +23°C° 0 mm 1 mps 752 mmHg 69%
    03:00 +23°C° 0 mm 2 mps 752 mmHg 69%
    04:00 +23°C° 0 mm 2 mps 752 mmHg 69%
    05:00 +24°C° 0 mm 1 mps 752 mmHg 64%
    06:00 +26°C° 0 mm 1 mps 752 mmHg 60%
    07:00 +28°C° 0 mm 1 mps 752 mmHg 55%
    08:00 +30°C° 0 mm 1 mps 752 mmHg 49%
    09:00 +31°C° 0 mm 1 mps 752 mmHg 44%
    10:00 +34°C° 0 mm 2 mps 752 mmHg 38%
    11:00 +34°C° 0 mm 2 mps 752 mmHg 37%
    12:00 +35°C° 0 mm 2 mps 751 mmHg 35%
    13:00 +36°C° 0 mm 3 mps 751 mmHg 34%
    14:00 +35°C° 0 mm 2 mps 751 mmHg 35%
    15:00 +35°C° 0 mm 2 mps 751 mmHg 35%
    16:00 +35°C° 0 mm 2 mps 751 mmHg 36%
    17:00 +32°C° 0 mm 2 mps 751 mmHg 42%
    18:00 +30°C° 0 mm 1 mps 751 mmHg 49%
    19:00 +27°C° 0 mm 1 mps 751 mmHg 55%
    20:00 +27°C° 0 mm 1 mps 751 mmHg 55%
    21:00 +26°C° 0 mm 2 mps 751 mmHg 55%
    22:00 +25°C° 0 mm 2 mps 751 mmHg 55%
    23:00 +25°C° 0 mm 3 mps 751 mmHg 54%

    22 July, Sunday

    Time Temperature Precipitation Wind Pressure Humidity
    00:00 +25°C° 0 mm 3 mps 751 mmHg 53%
    01:00 +25°C° 0 mm 3 mps 751 mmHg 52%
    02:00 +25°C° 0 mm 3 mps 750 mmHg 52%
    03:00 +25°C° 0 mm 3 mps 750 mmHg 52%
    04:00 +24°C° 0 mm 3 mps 750 mmHg 51%
    05:00 +26°C° 0 mm 3 mps 750 mmHg 50%
    06:00 +28°C° 0 mm 3 mps 749 mmHg 49%
    07:00 +30°C° 0 mm 3 mps 749 mmHg 48%
    08:00 +33°C° 0 mm 4 mps 749 mmHg 43%
    09:00 +34°C° 0 mm 4 mps 748 mmHg 38%
    10:00 +36°C° 0 mm 5 mps 748 mmHg 33%
    11:00 +37°C° 0 mm 5 mps 747 mmHg 32%
    12:00 +38°C° 0 mm 6 mps 747 mmHg 31%
    13:00 +39°C° 0 mm 7 mps 746 mmHg 30%
    14:00 +38°C° 0 mm 7 mps 746 mmHg 32%
    15:00 +38°C° 0 mm 7 mps 745 mmHg 35%
    16:00 +36°C° 0 mm 7 mps 745 mmHg 37%
    17:00 +34°C° 0 mm 6 mps 745 mmHg 44%
    18:00 +30°C° 0 mm 6 mps 745 mmHg 52%
    19:00 +28°C° 0 mm 5 mps 745 mmHg 59%
    20:00 +27°C° 0 mm 4 mps 745 mmHg 61%
    21:00 +26°C° 0 mm 4 mps 745 mmHg 63%
    22:00 +26°C° 0 mm 4 mps 745 mmHg 66%
    23:00 +25°C° 0.7 mm 4 mps 745 mmHg 68%

    23 July, Monday

    Time Temperature Precipitation Wind Pressure Humidity
    00:00 +25°C° 0.7 mm 3 mps 745 mmHg 69%
    01:00 +24°C° 0.7 mm 3 mps 745 mmHg 71%
    02:00 +24°C° 1.1 mm 3 mps 745 mmHg 72%
    03:00 +22°C° 1.1 mm 3 mps 745 mmHg 73%
    04:00 +22°C° 1.1 mm 3 mps 745 mmHg 74%
    05:00 +24°C° 0.4 mm 3 mps 745 mmHg 74%
    06:00 +24°C° 0.4 mm 3 mps 745 mmHg 73%
    07:00 +25°C° 0.4 mm 3 mps 745 mmHg 73%
    08:00 +26°C° 0.3 mm 3 mps 745 mmHg 68%
    09:00 +27°C° 0.3 mm 2 mps 745 mmHg 64%
    10:00 +28°C° 0.3 mm 2 mps 745 mmHg 59%
    11:00 +29°C° 0.1 mm 3 mps 745 mmHg 56%
    12:00 +30°C° 0.1 mm 3 mps 745 mmHg 53%
    13:00 +32°C° 0.1 mm 4 mps 745 mmHg 49%
    14:00 +30°C° 0.4 mm 5 mps 745 mmHg 51%
    15:00 +30°C° 0.4 mm 6 mps 745 mmHg 53%
    16:00 +30°C° 0.4 mm 6 mps 745 mmHg 55%
    17:00 +28°C° 0.5 mm 6 mps 745 mmHg 60%
    18:00 +27°C° 0.5 mm 6 mps 745 mmHg 66%
    19:00 +25°C° 0.5 mm 5 mps 745 mmHg 72%
    20:00 +25°C° 0.1 mm 5 mps 746 mmHg 73%
    21:00 +23°C° 0.1 mm 4 mps 746 mmHg 75%
    22:00 +23°C° 0.1 mm 4 mps 746 mmHg 76%
    23:00 +22°C° 0.3 mm 4 mps 746 mmHg 77%
    Show more